Location: Lourdes
(43.1000°N, 0.0500°W)
Time: 11:09:30
(UTC+00:00)

CENTAUR R/B - Pass Details

Date: 30 November 2020
Orbit: 750 x 1438 km, 63.4° (Epoch: 11 January)

Event Time Altitude Azimuth Distance (km) Brightness Sun altitude
Rises 18:46:03 0° 200° (SSW) 3,334 5.7 -24.9°
Reaches altitude 10° 18:48:21 10° 197° (SSW) 2,470 4.9 -25.3°
Enters shadow 18:53:41 58° 130° (SE) 1,089 2.4 -26.2°
